Regional Weather Roundup
Issued by NWS

Home | Current Version | Previous Version | Graphics & Text | Print | Product List | Glossary On
Versions: 1 2 3 4 5 6 7 8 9 10 11 12 13 14 15 16 17 18 19 20 21 22 23 24 25 26 27 28 29 30 31 32 33 34 35 36 37 38 39 40 41 42 43 44 45 46 47 48 49 50
000
ASUS43 KLOT 280206
RWRIL

ILLINOIS REGIONAL WEATHER ROUNDUP
NATIONAL WEATHER SERVICE CHICAGO/ROMEOVILLE IL
800 PM CST SAT DEC 27 2014

NOTE: "FAIR" INDICATES FEW OR NO CLOUDS BELOW 12,000 FEET WITH NO
SIGNIFICANT WEATHER AND/OR OBSTRUCTIONS TO VISIBILITY.

* THESE STATIONS ARE NOT UNDER NWS QUALITY CONTROL. THEY ALSO MAY NOT
  REPORT WEATHER SUCH AS PRECIPITATION OR FOG.

ILZ001-002-007-009-015-016-024-280300-
NORTHWEST ILLINOIS

CITY           SKY/WX    TMP DP  RH WIND       PRES   REMARKS
MOLINE         CLOUDY    29  22  75 NW17      30.18R WCI  17
STERLING*      MOCLDY    30  23  74 NW10      30.15R WCI  21
SAVANNA*       CLOUDY    30  24  77 NW10G17   30.15S WCI  21
$$

ILZ003-004-008-010-011-017-018-280300-
NORTH CENTRAL ILLINOIS

CITY           SKY/WX    TMP DP  RH WIND       PRES   REMARKS
ROCKFORD       MOCLDY    31  24  75 NW7       30.13R WCI  24
FREEPORT*      MOCLDY    30  25  81 W7        30.13S WCI  23
ROCHELLE*      MOCLDY    30  27  88 W10       30.12R WCI  21
DE KALB*       CLOUDY    30  26  84 W12       30.11R WCI  20
PERU*          CLOUDY    32  28  84 W9        30.15R WCI  24
$$

ILZ005-006-012>014-019>023-280300-
NORTHEAST ILLINOIS

CITY           SKY/WX    TMP DP  RH WIND       PRES   REMARKS
CHICAGO-OHARE  CLOUDY    34  25  69 W12       30.09R WCI  25
CHICAGO-MIDWAY CLOUDY    36  26  67 W12       30.10R WCI  28
AURORA         CLOUDY    33  26  75 W10       30.11R WCI  25
LANSING*       CLOUDY    34  27  75 NW9       30.11S WCI  26
JOLIET*        CLOUDY    32  27  81 W7        30.12S WCI  26
WAUKEGAN       CLOUDY    34  25  69 W8G17     30.06R WCI  27
DUPAGE AIRPORT CLOUDY    32  25  75 W15       30.09R WCI  22
KANKAKEE*      MOCLDY    32  29  88 W10       30.14R WCI  24
WHEELING       CLOUDY    34  25  69 NW9       30.11R WCI  27
MORRIS*        MOCLDY    32  28  86 W12       30.12R WCI  23
ROMEOVILLE*    CLOUDY    32  27  82 W12       30.12R WCI  23
NORTHERLY ISL    N/A     35  26  70 W12         N/A  WCI  27
$$

LMZ740>746-280300-
SOUTHERN LAKE MICHIGAN

STATION/POSITION SKY/WX   TEMP    WIND        PRES    VSBY  WAVE
                          AIR SEA DIR/SP/G                  HT/PER
                          (F)     (DEG/KT/KT) (MB)    (MI)  (FT/S)
WAUKEGAN HARBOR            35     300/ 11/ 22   N/A
HARRISON CRIB              34     300/ 15/ 18   N/A
BURNHAM HARBOR             35     250/ 11/ 15   N/A
CALUMET HARBOR             35     270/  8/ 13 1017.7F
MICHIGAN CITY              35     260/ 20/ 22   N/A
$$

ILZ025>027-034>036-040-047-049-050-058-095>099-280300-
WEST-CENTRAL ILLINOIS

CITY           SKY/WX    TMP DP  RH WIND       PRES   REMARKS
QUINCY         CLOUDY    32  24  72 NW13      30.21R WCI  22
GALESBURG*     CLOUDY    29  25  83 W15       30.18S WCI  18
MACOMB*        CLOUDY    31  26  81 NW12G17   30.22S WCI  22
JACKSONVILLE*  CLOUDY    35  28  78 NW12G17   30.20R WCI  26
PITTSFIELD*    CLOUDY    34  28  79 NW13      30.21R WCI  25
$$

ILZ028>032-037-038-041>044-048-051>054-059>061-280300-
CENTRAL ILLINOIS

CITY           SKY/WX    TMP DP  RH WIND       PRES   REMARKS
PONTIAC        CLOUDY    33  29  83 W14G20    30.16R WCI  24
BLOOMINGTON    CLOUDY    32  28  85 NW12      30.16R WCI  23
DECATUR        CLOUDY    34  30  85 NW14G25   30.16S WCI  25
PEORIA         CLOUDY    34  24  67 W7        30.18R WCI  28
LACON*         CLOUDY    31  25  77 W7        30.16R WCI  25
LINCOLN*       CLOUDY    34  29  83 NW3       30.18S
SPRINGFIELD    CLOUDY    34  28  79 NW12      30.18F WCI  25
TAYLORVILLE    CLOUDY    34  32  93 NW12      30.17S WCI  25
$$

ILZ033-039-045-046-055>057-062-063-280300-
EAST-CENTRAL ILLINOIS

CITY           SKY/WX    TMP DP  RH WIND       PRES   REMARKS
CHAMPAIGN      CLOUDY    34  30  85 W13       30.15R WCI  25
DANVILLE*      LGT RAIN  33  32  95 W9        30.11R WCI  25
RANTOUL*       CLOUDY    35  31  85 NW14      30.14R WCI  25
MATTOON        LGT RAIN  33  32  96 W7        30.15F FOG     WCI  27
PARIS*         RAIN      35  34  98 W7        30.17R WCI  29
$$

ILZ079-100>102-280300-
SOUTHWEST ILLINOIS

CITY           SKY/WX    TMP DP  RH WIND       PRES   REMARKS
BELLEVILLE     CLOUDY    36  36  99 NW8       30.19R WCI  29
CAHOKIA*       CLOUDY    37  34  89 NW7       30.21R WCI  32
SPARTA*        LGT RAIN  35  34  94 NW7       30.20R WCI  30
$$

ILZ064>066-069>071-074>076-080>082-084>086-088>090-092>094-280300-
SOUTH-CENTRAL ILLINOIS

CITY           SKY/WX    TMP DP  RH WIND       PRES   REMARKS
CARBONDALE     LGT RAIN  39  37  92 NW8       30.19R FOG     WCI  33
CAIRO*         RAIN     N/A N/A N/A NW9       30.18R
EFFINGHAM*     RAIN      36  32  86 NW12      30.18F WCI  28
MARION         RAIN      41  39  93 NW5       30.19R
MT. VERNON     CLOUDY    37  34  87 CALM      30.18S
CENTRALIA*     LGT RAIN  37  35  91 NW7       30.18R WCI  32
SALEM*         RAIN      39  37  90 NW6       30.17F WCI  35
METROPOLIS*    DRIZZLE   42  42 100 N15       30.15R
$$

ILZ067-068-072-073-078-083-087-091-280300-
SOUTHEAST ILLINOIS

CITY           SKY/WX    TMP DP  RH WIND       PRES   REMARKS
LAWRENCEVILLE  LGT RAIN  39  38  96 NW13      30.16R FOG     WCI  31
FLORA*         RAIN      37  36  95 NW6       30.17F WCI  33
FAIRFIELD*     LGT RAIN  38  37  96 N7        30.16F WCI  33
HARRISBURG*    LGT RAIN  40  40 100 NW8       30.18S
ROBINSON*      RAIN      38  38  97 NW6       30.17R WCI  34
CARMI*         RAIN      42  42 100 NW12      30.15S
$$

ABBREVIATIONS USED IN REMARKS
   TC - TEMPERATURE IN CELSIUS
  WCI - WIND CHILL INDEX
   HX - HEAT INDEX
  VSB - VISIBILITY
$$




USA.gov is the U.S. government's official web portal to all federal, state and local government web resources and services.